Temperature
15 16 16 16 16 16 16 17 17 17 17 17 18 18 18 18 18 18 18 18 18 18 18 18 18 18 18 18 18 18 18 18 18 18 18 18 18 17 17 17 17 17 17
15 15 15 15 16 16 16 16 16 17 17 17 17 18 18 18 18 18 18 18 18 18 18 18 18 18 18 18 18 18 18 18 18 18 18 18 18 17 17 17 17 17 17
15 15 15 15 15 15 16 16 16 16 16 17 17 17 17 18 18 18 18 18 18 18 18 18 18 18 18 18 18 18 18 18 18 18 18 18 17 17 17 17 17 17 17
14 14 15 15 15 15 15 16 16 16 16 17 17 17 17 17 17 18 18 18 18 18 18 18 18 18 18 18 18 18 18 17 17 17 17 17 17 17 17 17 17 17 17
14 14 14 14 14 15 15 15 15 16 16 16 16 17 17 17 17 17 18 18 18 18 18 18 18 18 18 18 18 18 18 17 17 17 17 17 17 17 17 17 17 17 17
14 14 14 14 14 14 14 15 15 15 16 16 16 16 17 17 17 17 17 17 17 17 18 18 18 18 18 18 18 18 18 17 17 17 17 17 17 17 17 17 17 17 17
13 13 13 14 14 14 14 14 15 15 15 15 15 16 16 17 17 17 17 17 17 17 17 18 18 18 18 17 17 17 17 17 17 17 17 17 17 17 17 17 17 17 17
13 13 13 13 13 13 14 14 14 14 15 15 15 15 15 16 17 17 17 17 17 17 17 17 18 18 18 18 17 17 17 17 17 17 17 17 17 17 17 17 17 17 17
13 13 13 13 13 13 13 14 14 14 14 14 15 15 15 15 16 17 17 17 17 17 17 17 17 17 17 17 17 17 17 17 17 17 17 17 17 17 17 17 17 17 16
13 13 13 13 13 13 13 13 14 14 14 14 14 14 15 15 15 16 16 17 17 17 17 17 17 17 17 17 17 17 17 17 17 17 17 17 17 17 17 16 16 16 16
13 13 13 13 13 13 13 13 13 13 14 14 14 14 14 15 15 15 15 16 16 16 16 17 17 17 17 17 17 17 17 17 17 17 17 17 17 17 17 16 16 16 16
12 13 12 13 13 13 13 13 13 13 13 13 14 14 14 14 15 15 15 15 16 16 16 16 16 17 17 17 17 17 17 17 17 17 16 17 17 17 16 16 16 16 16
12 12 12 12 12 13 13 13 13 13 13 13 13 14 14 14 14 14 15 15 15 15 15 16 16 16 16 17 17 17 16 16 17 16 16 16 16 16 16 16 16 16 16
12 12 12 12 12 12 13 13 13 13 13 13 13 13 14 14 14 14 14 14 15 15 15 15 16 16 16 16 16 16 16 16 16 16 16 16 16 16 16 16 16 16 16
12 12 12 12 12 12 12 13 13 13 13 13 13 13 13 14 14 14 14 14 14 14 14 15 15 16 16 16 16 16 16 16 16 16 16 16 16 16 16 16 16 16 15
12 12 12 12 12 12 12 12 12 13 13 13 13 13 13 13 13 14 14 14 14 14 14 15 15 15 15 15 15 15 16 16 16 16 16 16 16 16 16 15 15 15 15
12 12 12 12 12 12 12 12 12 12 13 13 13 13 13 13 13 14 14 14 14 14 14 15 15 15 15 15 15 15 15 15 15 15 15 15 15 15 15 15 15 15 15
12 12 12 12 12 12 12 12 12 12 12 13 13 13 13 13 13 13 14 14 14 14 14 14 14 14 15 15 15 15 15 15 15 15 15 15 15 15 15 15 15 15 15
12 12 12 12 12 12 12 12 12 12 12 13 13 13 13 13 13 13 13 14 14 14 14 14 14 14 14 14 14 14 14 14 14 15 15 15 15 15 15 15 15 14 14
12 12 12 12 12 12 12 12 12 12 12 12 13 13 13 13 13 13 13 13 13 14 14 14 14 14 14 14 14 14 14 14 14 14 14 14 14 14 14 14 14 14 14
12 12 12 12 12 12 12 12 12 12 12 12 13 13 13 13 13 13 13 13 13 13 13 13 14 14 14 14 14 14 14 14 14 14 14 14 14 14 14 14 14 14 14
12 12 12 12 12 12 12 12 12 12 12 12 12 13 13 13 13 13 13 13 13 13 13 13 13 13 14 14 14 14 14 14 13 13 13 13 14 14 14 14 14 14 13
12 12 12 12 12 12 12 12 12 12 12 12 12 12 13 13 13 13 13 13 13 13 13 13 13 13 13 14 14 13 13 14 14 14 13 13 13 13 13 13 13 13 13
13 12 12 12 12 12 12 12 12 12 12 12 12 12 12 12 12 12 13 13 13 13 13 13 13 13 14 14 14 14 13 13 13 13 13 13 13 13 13 13 13 13 13
13 13 12 12 12 12 12 12 12 12 12 12 12 12 12 12 12 12 12 13 13 13 13 13 13 13 13 13 13 13 13 13 12 12 12 12 13 13 13 13 12 12 12
13 13 13 13 12 12 12 12 12 12 12 12 12 12 12 12 12 12 12 12 13 13 13 13 13 13 13 13 13 13 13 13 12 12 12 12 12 12 12 12 12 12 12
Wind_Speed
3 3 3 3 4 5 4 3 4 4 5 4 4 5 5 5 6 7 8 13 15 15 15 14 13 13 12 12 11 11 11 11 12 12 13 13 13 13 13 13 12 12 12
2 2 3 3 3 4 4 4 4 4 4 3 4 4 4 4 5 7 8 11 15 16 15 15 14 13 13 13 12 12 12 12 12 13 13 14 13 13 13 12 12 12 11
2 2 2 3 3 4 3 3 3 2 3 3 3 3 3 3 4 5 7 8 10 13 15 15 15 14 14 14 13 13 13 13 13 14 14 14 14 14 13 13 12 11 11
4 2 2 3 3 2 1 2 2 2 2 2 2 3 3 2 3 4 5 7 8 9 12 14 15 15 15 15 14 14 14 13 14 14 14 15 15 14 13 12 12 11 10
5 2 2 3 3 1 1 2 1 2 2 2 3 3 2 2 3 4 4 5 8 8 9 12 15 16 16 16 15 15 15 15 14 14 15 15 15 15 14 13 12 11 10
5 3 2 3 2 2 2 2 1 2 2 3 3 3 2 3 3 4 5 4 6 8 9 10 11 14 16 16 16 16 16 16 16 15 15 15 15 15 15 14 13 12 11
5 3 3 3 2 1 2 2 1 1 2 1 0 1 2 2 3 3 4 5 5 6 8 9 10 10 12 16 17 17 17 17 16 16 16 15 15 15 15 14 13 12 11
6 4 2 2 2 1 2 1 0 1 1 1 1 1 2 3 2 3 3 5 6 5 6 9 9 10 10 11 14 17 17 17 17 17 17 16 16 16 15 15 14 13 12
5 4 3 3 2 1 2 2 1 2 2 1 1 2 2 3 2 1 2 3 4 4 5 5 7 10 11 11 12 15 17 17 17 17 17 17 17 16 15 15 14 13 13
5 5 3 3 3 2 3 3 2 2 2 1 1 1 2 2 2 1 1 1 3 4 5 6 7 8 11 11 12 14 17 17 18 17 17 17 17 17 16 16 15 14 13
5 5 4 3 3 2 3 3 2 2 2 2 2 1 1 1 2 2 2 1 1 2 4 5 5 6 9 10 11 14 17 18 18 18 18 18 17 17 17 16 16 15 14
5 5 4 3 3 3 3 3 3 3 2 3 3 2 2 2 2 2 2 2 2 2 3 4 5 5 7 9 12 14 16 17 18 18 18 18 18 17 17 16 16 15 15
4 5 5 4 3 3 3 2 2 3 3 3 3 3 3 3 3 3 3 2 1 1 1 2 4 5 7 8 10 15 16 17 18 18 18 18 18 18 17 17 16 16 15
5 5 5 4 4 3 3 2 2 2 2 3 3 3 3 3 3 3 3 3 1 1 1 3 2 4 5 8 11 15 14 18 18 18 18 18 18 18 18 17 16 15 15
5 5 5 4 4 3 3 2 1 2 2 2 3 3 3 3 3 3 3 4 4 3 3 3 2 3 4 7 10 12 12 16 18 18 17 17 17 17 17 17 16 15 15
5 6 5 4 4 3 2 1 1 2 2 2 2 2 2 2 2 3 3 3 4 4 3 3 3 2 3 4 9 10 10 14 17 17 17 17 17 17 17 16 16 15 15
5 5 5 5 4 4 3 1 2 2 2 2 2 2 3 2 2 2 2 3 3 4 4 3 2 3 3 4 4 6 8 8 11 15 16 17 17 16 16 16 16 15 15
5 5 4 4 4 4 3 2 2 2 2 2 3 2 3 2 2 2 2 3 3 3 4 3 2 3 4 5 5 6 6 7 7 12 15 16 16 16 16 16 15 15 15
5 5 4 4 4 4 4 3 2 2 2 2 2 2 3 2 2 2 2 3 3 3 3 3 3 2 2 3 4 4 5 4 6 9 13 14 15 15 16 16 16 15 15
4 5 5 4 4 4 4 3 3 3 3 2 2 2 2 3 3 3 3 3 2 2 2 3 3 2 2 3 4 5 4 4 4 5 6 9 11 13 14 15 15 15 15
4 4 5 5 5 4 3 2 2 2 3 3 3 2 1 2 3 2 2 3 3 2 2 3 3 2 2 4 5 4 4 4 3 3 4 4 5 6 8 12 14 15 15
4 4 4 5 6 5 6 5 2 2 2 3 3 3 2 2 2 2 2 3 4 4 4 3 3 4 4 4 3 4 4 4 3 3 4 4 4 5 6 8 12 15 16
4 4 4 5 5 7 8 6 3 1 2 2 2 2 2 2 2 1 2 2 3 5 6 5 5 6 6 6 6 6 6 5 4 4 4 3 3 4 4 7 12 14 15
3 3 4 5 5 7 8 6 3 2 2 3 3 2 2 2 2 1 0 1 1 2 4 4 6 6 6 6 7 7 6 4 2 2 3 3 3 3 3 5 11 13 14
3 3 4 4 4 6 8 6 3 2 2 4 3 3 2 2 3 2 1 1 2 3 3 3 5 6 7 7 7 5 6 5 3 3 3 3 3 2 2 3 6 11 13
3 4 4 4 4 5 7 5 2 1 2 3 3 4 4 3 4 2 0 1 2 3 2 2 1 2 3 5 8 7 8 6 3 3 4 4 4 3 2 2 3 6 8
Wind_Direction
279 278 271 269 265 259 249 238 232 230 232 233 231 231 231 227 226 221 219 215 207 198 192 188 184 182 180 177 173 170 168 165 164 162 159 157 154 151 147 146 146 144 143
297 302 293 288 277 267 251 235 234 233 228 226 234 232 234 226 220 215 211 209 205 198 193 191 189 187 184 180 177 174 171 171 169 166 162 160 159 157 154 151 150 148 147
333 309 311 304 291 287 274 251 242 240 239 236 240 244 230 220 212 210 203 199 200 199 195 193 193 191 188 184 181 178 176 175 172 170 166 163 162 161 160 158 155 153 151
352 347 335 308 301 309 284 256 233 240 251 247 244 246 241 223 205 201 195 196 194 199 200 197 197 196 193 189 186 183 179 178 176 174 171 168 166 165 163 162 161 160 157
346 349 323 306 318 320 302 282 242 217 236 248 247 235 227 229 207 200 193 197 197 200 201 200 200 199 197 193 189 187 184 181 180 179 176 174 172 171 170 168 167 165 162
337 337 310 312 323 330 314 305 273 240 228 235 255 255 231 234 213 196 198 199 201 204 207 202 197 201 200 196 193 190 187 185 184 183 181 179 176 175 174 174 173 171 168
330 320 313 314 320 308 289 287 270 267 250 212 148 313 297 252 228 205 198 190 200 204 202 200 194 191 198 202 198 194 191 189 187 186 185 183 180 178 177 176 176 175 173
326 318 301 295 297 301 314 298 260 269 262 176 146 108 325 323 289 223 196 193 196 196 202 203 193 190 193 194 199 197 194 192 191 189 188 187 185 183 182 180 181 181 180
324 318 304 286 279 242 252 258 223 199 236 247 192 163 175 231 274 294 223 201 193 195 203 201 193 190 192 190 193 199 195 194 194 193 192 191 189 187 186 185 186 186 185
319 318 307 294 278 255 242 244 225 202 191 227 254 219 209 194 188 285 316 244 202 203 204 207 201 193 192 188 191 194 195 195 196 196 196 194 191 191 191 191 190 190 191
317 315 307 303 296 276 258 249 237 221 200 203 206 217 230 226 199 186 239 269 243 221 209 206 198 192 191 191 193 195 195 196 197 200 200 197 194 195 195 194 194 195 196
317 317 312 306 296 282 266 254 235 230 224 220 213 201 196 204 200 187 206 219 227 240 218 211 203 197 192 194 201 199 197 197 199 201 202 199 198 197 196 197 198 199 201
316 314 315 307 299 287 277 261 239 238 230 228 223 215 210 215 203 188 188 204 216 245 233 226 210 198 194 193 200 202 202 198 199 201 202 201 198 197 197 199 200 203 204
296 303 313 311 302 296 291 276 245 247 241 236 237 223 220 225 211 196 187 178 198 251 239 236 227 204 193 192 198 197 202 201 201 202 202 200 199 198 198 199 202 205 205
311 320 325 324 315 304 293 287 263 267 261 248 245 235 226 227 223 213 201 186 179 201 237 229 224 211 189 191 196 195 198 201 201 202 200 199 198 196 198 201 201 203 203
333 338 338 336 334 325 310 293 283 281 265 262 246 244 242 232 231 219 211 208 192 185 212 222 220 210 189 193 191 190 197 199 200 200 199 198 199 198 198 199 201 202 202
342 348 344 345 348 347 340 339 308 292 273 275 266 246 250 235 227 225 214 210 203 185 209 232 219 197 185 189 181 180 190 191 197 200 199 199 199 199 199 200 201 201 200
343 349 353 354 354 354 353 355 332 326 293 278 275 262 256 242 229 226 210 214 211 194 192 216 216 198 201 193 183 183 185 190 193 200 199 200 200 200 200 199 198 199 199
344 348 356 353 349 348 346 342 335 321 305 289 274 260 257 233 230 234 221 218 217 207 190 198 215 198 199 183 176 181 181 184 195 201 200 201 201 200 199 199 198 198 197
344 343 346 343 339 339 341 338 346 335 325 317 294 261 239 216 219 221 221 222 213 200 190 194 203 190 186 180 171 178 182 190 195 188 193 195 197 199 201 200 199 198 198
345 341 345 344 341 336 333 331 331 338 337 337 335 318 279 244 232 210 206 202 193 190 187 194 195 188 186 178 187 182 184 175 187 179 175 187 185 193 201 203 201 200 201
341 345 346 342 341 339 337 339 339 358 357 353 345 334 318 318 306 289 264 215 191 190 194 195 200 197 202 197 187 180 172 169 195 186 176 192 183 197 202 205 204 201 201
332 336 334 337 333 329 337 340 346 24 6 352 343 333 336 345 349 332 307 287 234 221 208 197 201 207 201 195 184 186 187 181 187 172 159 190 187 203 206 205 199 199 200
309 314 319 324 330 336 349 355 9 33 15 354 348 338 330 330 333 339 322 330 289 267 241 220 213 218 215 202 193 190 182 157 109 142 152 180 186 198 200 200 199 199 198
299 302 306 319 326 327 343 353 17 24 3 351 347 349 337 327 328 1 58 301 301 298 287 252 227 223 215 201 182 162 164 166 178 191 177 169 174 168 184 206 204 199 197
276 299 309 309 308 312 331 347 8 50 357 339 341 342 346 334 328 332 237 232 263 276 287 310 291 249 212 194 191 190 184 181 172 191 189 170 166 156 186 215 201 202 202
Height
1507 1507 1506 1506 1507 1507 1507 1508 1509 1510 1511 1512 1514 1515 1516 1518 1519 1520 1521 1522 1524 1525 1526 1526 1527 1528 1529 1530 1531 1533 1534 1536 1538 1539 1541 1542 1544 1545 1547 1548 1549 1551 1552
1505 1504 1504 1504 1504 1504 1504 1504 1506 1507 1508 1509 1510 1512 1513 1515 1516 1517 1519 1520 1522 1523 1524 1525 1526 1527 1528 1529 1530 1532 1534 1535 1537 1539 1540 1542 1543 1545 1547 1548 1549 1551 1552
1502 1501 1501 1501 1501 1501 1501 1502 1502 1503 1504 1506 1507 1509 1510 1512 1513 1515 1516 1518 1519 1521 1522 1523 1525 1526 1527 1528 1530 1531 1533 1535 1536 1538 1540 1542 1543 1545 1546 1548 1549 1551 1552
1499 1498 1498 1498 1498 1498 1498 1498 1499 1500 1501 1502 1504 1506 1507 1508 1510 1512 1513 1515 1517 1519 1520 1521 1523 1524 1526 1527 1529 1530 1532 1534 1536 1538 1539 1541 1543 1544 1546 1548 1549 1550 1552
1496 1495 1495 1494 1494 1494 1495 1495 1496 1497 1498 1499 1500 1502 1503 1505 1507 1509 1510 1513 1515 1517 1518 1520 1521 1522 1524 1526 1527 1529 1531 1533 1534 1536 1538 1540 1542 1544 1545 1547 1548 1550 1551
1493 1492 1492 1491 1491 1491 1492 1492 1493 1494 1495 1496 1497 1498 1500 1501 1503 1505 1507 1509 1512 1514 1515 1517 1519 1520 1522 1524 1526 1527 1529 1531 1533 1535 1537 1539 1541 1543 1545 1546 1548 1549 1550
1491 1490 1489 1488 1488 1488 1489 1489 1490 1491 1492 1493 1494 1495 1496 1498 1500 1502 1504 1506 1508 1511 1512 1514 1516 1518 1520 1522 1524 1525 1528 1530 1532 1533 1535 1537 1539 1541 1543 1545 1546 1548 1549
1489 1487 1486 1486 1486 1486 1486 1487 1488 1488 1489 1491 1492 1493 1494 1496 1496 1498 1500 1502 1505 1507 1509 1511 1513 1515 1518 1519 1521 1523 1525 1528 1530 1532 1534 1536 1538 1540 1542 1543 1545 1546 1548
1486 1485 1484 1483 1483 1483 1483 1484 1485 1486 1487 1489 1490 1492 1492 1493 1494 1495 1497 1499 1501 1503 1506 1508 1510 1512 1515 1517 1519 1521 1523 1525 1528 1530 1532 1534 1536 1538 1540 1542 1543 1545 1546
1485 1483 1482 1481 1481 1481 1481 1482 1482 1484 1485 1486 1487 1489 1491 1491 1493 1493 1494 1496 1498 1500 1502 1504 1507 1509 1511 1513 1516 1518 1520 1523 1525 1527 1529 1531 1533 1535 1537 1539 1541 1542 1544
1483 1482 1480 1479 1479 1478 1478 1479 1480 1481 1482 1483 1484 1486 1487 1489 1490 1491 1491 1493 1495 1497 1499 1501 1503 1506 1508 1510 1512 1515 1518 1520 1522 1525 1527 1529 1531 1533 1535 1537 1538 1540 1541
1482 1480 1478 1477 1476 1476 1476 1476 1477 1478 1479 1480 1481 1483 1484 1486 1487 1488 1490 1490 1492 1494 1496 1498 1500 1502 1504 1506 1509 1511 1514 1517 1519 1522 1524 1526 1528 1530 1532 1534 1536 1537 1539
1481 1479 1477 1475 1474 1474 1474 1474 1475 1475 1476 1477 1478 1480 1481 1483 1484 1486 1487 1488 1489 1491 1492 1494 1496 1498 1501 1503 1505 1508 1511 1513 1516 1518 1521 1523 1525 1527 1529 1531 1533 1534 1536
1480 1478 1476 1474 1473 1472 1472 1472 1472 1473 1474 1474 1475 1477 1478 1479 1481 1482 1484 1486 1486 1488 1489 1491 1492 1495 1496 1499 1501 1504 1506 1509 1512 1515 1517 1520 1522 1524 1526 1528 1529 1531 1533
1480 1477 1475 1473 1471 1470 1470 1470 1470 1471 1471 1472 1473 1474 1475 1476 1478 1479 1481 1483 1485 1485 1486 1487 1489 1491 1493 1495 1498 1500 1502 1505 1508 1511 1514 1516 1518 1520 1522 1524 1526 1528 1529
1479 1476 1474 1472 1470 1469 1468 1468 1468 1468 1469 1470 1470 1471 1472 1473 1475 1476 1477 1479 1481 1482 1483 1484 1485 1487 1489 1491 1494 1496 1499 1501 1504 1507 1510 1512 1514 1517 1519 1520 1522 1524 1526
1479 1476 1474 1471 1470 1468 1467 1466 1466 1467 1467 1467 1468 1469 1470 1471 1472 1473 1474 1476 1477 1479 1479 1480 1482 1484 1486 1488 1490 1492 1495 1497 1500 1503 1505 1508 1510 1513 1515 1517 1519 1521 1522
1479 1476 1473 1471 1469 1468 1466 1465 1465 1465 1465 1465 1466 1466 1467 1468 1469 1470 1471 1473 1474 1476 1477 1477 1479 1481 1482 1484 1486 1489 1491 1493 1496 1499 1501 1504 1506 1508 1510 1513 1515 1517 1518
1479 1476 1474 1471 1469 1468 1466 1465 1464 1464 1463 1463 1464 1464 1465 1466 1467 1468 1469 1470 1471 1473 1474 1474 1475 1477 1479 1481 1483 1485 1487 1490 1492 1494 1497 1499 1501 1504 1506 1508 1510 1512 1514
1479 1477 1474 1472 1470 1468 1466 1465 1464 1463 1462 1462 1462 1462 1463 1464 1464 1465 1466 1468 1469 1470 1471 1472 1473 1474 1476 1478 1480 1482 1484 1486 1488 1490 1492 1494 1497 1499 1502 1504 1506 1508 1510
1479 1477 1475 1472 1470 1468 1466 1465 1463 1462 1461 1461 1461 1461 1461 1462 1463 1463 1464 1465 1466 1467 1468 1469 1470 1471 1473 1474 1476 1478 1480 1482 1484 1486 1488 1490 1492 1494 1496 1499 1501 1503 1505
1480 1478 1475 1473 1471 1469 1467 1465 1464 1462 1461 1461 1460 1460 1460 1461 1461 1462 1462 1463 1464 1464 1465 1466 1467 1468 1469 1471 1473 1475 1477 1478 1480 1482 1484 1486 1488 1490 1492 1494 1496 1498 1500
1481 1478 1476 1473 1471 1469 1467 1465 1464 1463 1462 1461 1460 1460 1460 1459 1459 1460 1460 1461 1461 1462 1463 1464 1464 1465 1466 1468 1470 1471 1473 1475 1476 1478 1481 1482 1484 1485 1488 1489 1491 1493 1495
1481 1479 1476 1474 1472 1470 1468 1466 1465 1463 1462 1461 1460 1459 1459 1458 1458 1458 1458 1458 1459 1459 1460 1460 1461 1462 1464 1465 1467 1468 1469 1472 1473 1475 1477 1478 1480 1481 1483 1485 1487 1489 1491
1481 1479 1477 1475 1473 1471 1469 1467 1465 1464 1462 1461 1460 1459 1458 1458 1457 1457 1456 1456 1456 1457 1457 1458 1458 1459 1461 1462 1463 1465 1466 1468 1469 1471 1473 1475 1476 1477 1479 1481 1483 1485 1487
1481 1480 1478 1476 1473 1471 1469 1467 1466 1464 1463 1461 1460 1459 1458 1457 1456 1456 1455 1454 1454 1454 1455 1455 1456 1456 1457 1459 1460 1461 1463 1464 1465 1467 1469 1471 1472 1473 1475 1476 1478 1480 1482